Regional Weather Roundup
Issued by NWS

Home | Current Version | Previous Version | Graphics & Text | Print | Product List | Glossary On
Versions: 1 2 3 4 5 6 7 8 9 10 11 12 13 14 15 16 17 18 19 20 21 22 23 24 25 26 27
000
ASUS45 KTFX 231210
RWRMT
MONTANA REGIONAL WEATHER ROUNDUP
NATIONAL WEATHER SERVICE GREAT FALLS MT
600 AM MDT WED MAY 23 2018

NOTE: "FAIR" INDICATES FEW OR NO CLOUDS BELOW 12000 FEET WITH NO
SIGNIFICANT WEATHER AND/OR OBSTRUCTIONS TO VISIBILITY.

MTZ001>007-043-231300-
WEST OF THE DIVIDE

CITY           SKY/WX    TMP DP  RH WIND       PRES   REMARKS
KALISPELL      FAIR      53  42  66 N8        29.89S
MISSOULA       FAIR      51  47  86 CALM      29.90F
BUTTE          FAIR      42  39  89 SE3       29.99S
MULLAN PASS    FAIR      50  36  58 E8        29.96F
ANACONDA         N/A     43  41  93 CALM      29.97S
DEER LODGE       N/A     45  45 100 SE3       29.98S
HAMILTON         N/A     50  46  87 MISG      29.92S
PLAINS           N/A     46  42  86 CALM      29.90S
RONAN            N/A     46  45  93 NE7       29.90S
$$

MTZ008-052>055-231300-
SOUTHWEST MONTANA

CITY           SKY/WX    TMP DP  RH WIND       PRES   REMARKS
BOZEMAN        CLOUDY    50  48  93 CALM      29.95F
DILLON         MOCLDY    44  43  96 S5        29.97R
ENNIS          CLOUDY    48  46  93 CALM      30.00S
W YELLOWSTONE  MOCLDY    43  43 100 CALM      29.99S
TWIN BRIDGES     N/A     45  41  86 CALM      29.95F
$$

MTZ009-010-012-014-046-048-049-054-231300-
EAST SLOPES AND CENTRAL MONTANA

CITY           SKY/WX    TMP DP  RH WIND       PRES   REMARKS
CUT BANK       FAIR      45  42  89 W7        29.94F
GREAT FALLS    CLOUDY    51  46  83 W5        29.95S
MALMSTROM AFB  MOCLDY    52  49  89 CALM      29.94S
HELENA         CLOUDY    50  48  93 NW3       29.94S
AUGUSTA        MOCLDY    51  45  79 NE3       29.96S
CHOTEAU          N/A     50  43  76 W3        29.97S
FAIRFIELD      MOCLDY    50  46  85 NW5       29.95R
POWER          MOCLDY    50  48  93 CALM      29.94R
RAYNESFORD     MOCLDY    50  48  95 CALM      29.96S
WHITE SULPHUR    N/A     43  41  93 NW3       29.97S
$$

MTZ011-013-016-021-045-047-050-051-231300-
NORTH CENTRAL MONTANA

CITY           SKY/WX    TMP DP  RH WIND       PRES   REMARKS
HAVRE          FAIR      48  45  89 CALM      29.91S
LEWISTOWN      CLOUDY    52  51  97 SE6       29.96S
N BAR RANCH    CLOUDY    52  48  87 CALM      30.00S
CHINOOK          N/A     48  48 100 CALM      29.92S
GEYSER         MOCLDY    52  49  88 SW5       29.95S
JUDITH GAP     RAIN      53  50  87 SE14      29.97R
ROY            MOCLDY    56  50  81 W5        29.93S
STANFORD       LGT RAIN  53  47  81 CALM      29.97S
WINIFRED       CLOUDY    56  50  80 S3        29.94S
$$

MTZ017>020-022>027-061-062-231300-
NORTHEAST MONTANA

CITY           SKY/WX    TMP DP  RH WIND       PRES   REMARKS
GLASGOW        FAIR      54  48  80 NE5       29.89S
GLENDIVE       FAIR      57  54  89 NE6       29.90S
JORDAN           N/A     53  50  89 W6        29.89S
MALTA          CLEAR     52  50  93 CALM      29.89S
SIDNEY         FAIR      56  52  86 N6        29.91R
WOLF POINT     FAIR      54  50  86 NE3       29.90S
PLENTYWOOD       N/A     57  48  72 CALM      29.93R
POPLAR           N/A     54  48  82 N6        29.91F
SCOBEY           N/A     45  34  65 CALM      29.92F
$$

MTZ028>42-056>058-231300-
SOUTHCENTRAL AND SOUTHEAST MONTANA

CITY           SKY/WX    TMP DP  RH WIND       PRES   REMARKS
BAKER          FAIR      60  57  89 SE14      29.91R
BILLINGS       LGT RAIN  56  55  97 S6        29.92R
LIVINGSTON     LGT RAIN  52  51  97 E7        29.94F
MILES CITY     FAIR      59  57  93 NE5       29.88R
BIG TIMBER     CLOUDY    52  52 100 NW5       29.96F
EKALAKA          N/A     58  54  86 SE7       29.92R
FORSYTH          N/A     61  61 100 S3        29.89R
HARLOWTON      LGT RAIN  50  48  95 CALM      29.97R
LAUREL           N/A     55  54  94 S7        29.94R
$$

REGIONAL REPORTS...DAKOTAS

CITY           SKY/WX    TMP DP  RH WIND       PRES   REMARKS
WILLISTON      FAIR      60  53  77 CALM      29.92R
MINOT          FAIR      58  52  80 CALM      29.96R
DICKINSON      FAIR      59  55  87 NE6       29.90F
BEACH          FAIR      55  55 100 SE6       29.94R
CROSBY         FAIR      52  52 100 NW5       29.95R
TIOGA          FAIR      52  52 100 E5        29.96R
WATFORD CITY   FAIR      55  55 100 CALM      29.92S
BISMARCK       FAIR      61  58  90 NE10      29.93F
GRAND FORKS    FAIR      60  57  89 SE7       30.01F
FARGO          FAIR      66  57  72 SE9       30.02R
BUFFALO SD       N/A     60  57  89 NE6       29.84S
RAPID CITY     CLOUDY    57  56  96 N6        29.92R
$$

REGIONAL REPORTS...WYOMING/IDAHO/WASHINGTON

CITY           SKY/WX    TMP DP  RH WIND       PRES   REMARKS
GILLETTE       CLOUDY    56  54  93 CALM      29.95S
SHERIDAN       CLOUDY    54  54 100 S5        29.94R
BUFFALO WY     CLOUDY    51  51 100 NW10      29.97R
CODY           RAIN      50  48  93 SW8       29.97S
YELLOWSTONE LA   N/A     39  38  96 VRB3      30.07S
IDAHO FALLS    LGT RAIN  53  50  89 SE8       29.95S
SALMON         FAIR      45  43  93 CALM      29.93R
BOISE          MOCLDY    61  49  64 SE12      29.83S
SPOKANE        FAIR      60  51  72 E3        29.82S
$$

REGIONAL REPORTS...ALBERTA

CITY           SKY/WX    TMP DP  RH WIND       PRES   REMARKS
CALGARY        PTCLDY    50  41  71 SW5       29.94S
CARDSTON         N/A     45  41  87 S5          N/A
EDMONTON       CLEAR     50  43  76 CALM      29.89S
FORT MCMURRAY  CLEAR     57  43  58 SE3       29.85S
HIGH LEVEL     CLEAR     59  48  67 VRB2      29.76S
LETHBRIDGE     PTCLDY    46  43  87 SW8       29.92S
LLOYDMINSTER   CLEAR     52  45  76 S5        29.93S
MEDICINE HAT   CLEAR     46  43  87 SW6       29.90F
MILK RIVER       N/A     46  43  87 NW10        N/A
PEACE RIVER    PTCLDY    50  43  76 N6        29.82S
PINCHER CREEK    N/A     45  39  81 W13       29.97S
WATERTON GATE    N/A     41  37  87 SW5         N/A
$$

REGIONAL REPORTS...SASKATCHEWAN

CITY           SKY/WX    TMP DP  RH WIND       PRES   REMARKS
CORONACH         N/A     46  43  87 W2          N/A
CYPRESS HILLS    N/A     55  39  54 E3          N/A
ESTEVAN        PTCLDY    52  50  93 NE8G18    29.94S
MOOSE JAW        N/A     48  43  81 E2          N/A
PRINCE ALBERT  CLEAR     50  45  81 E5        29.99R
REGINA         CLEAR     55  48  76 E6        29.96S
ROCKGLEN         N/A     52  46  82 SW2         N/A
SASKATOON      PTCLDY    54  50  87 E6        29.97R
SWIFT CURRENT  CLEAR     55  45  67 S6        29.92
VAL MARIE        N/A     45  41  87 NE3         N/A
$$




USA.gov is the U.S. government's official web portal to all federal, state and local government web resources and services.